Погода в Николаевке

Россия / Камчатский край     53°02′47″N   158°20′00″E
темп.,
°C
ветер,
м/с
пор.,
м/с
влажн.,
%
обл.,
%
осадки,
мм/ч
давл.,
гПа
погр.,
м
6 декабря, пн
пн600:00−12з468336 0.1 1007113
03:00−12з339361 0.1 100730
06:00−6з7157558 0.2 1009455
09:00−5з9177620 0.1 1010550
12:00−4з10187310 0.1 10121170
15:00−3з8167214 0.0 10131083
18:00−7з358415 0.0 1015130
21:00−8з328974 0.0 101623
7 декабря, вт
вт700:00−7з229063 0.1 101635
03:00−6зсз119482 0.2 101428
06:00−2ю0298100 1.5 1011163
09:000ююз249796 1.4 1009216
12:00+1ююз379894 2.9 1007293
15:00+1зюз71492100 2.5 1005784
18:00−3з1320778 3.6 1007702
21:00−5з1622733 0.1 1009992
8 декабря, ср
ср800:00−5з17237715 0.6 10111124
03:00−6з13207915 0.3 1014878
06:00−8з1219778 0.4 1017671
09:00−10з498545 0.1 1018204
12:00−6з1016754 0.1 1018956
15:00−5з814756 0.0 1017778
18:00−10зюз348814 0.1 101777
21:00−11зюз43847 0.0 101528
9 декабря, чт
чт900:00−10юз349266 0.2 101346
03:00−6з6138238 0.5 1011329
06:00−6зсз11197710 0.7 1012721
09:00−7зсз1422746 0.1 1013961
12:00−7зсз13207621 0.1 10151425
15:00−6зсз13217418 0.1 10171476
18:00−7зсз11207310 0.1 1020741
21:00−10з478011 0.0 1023149
10 декабря, пт
пт1000:00−11з43828 0.0 102435
03:00−12з338210 0.0 102638
06:00−12зсз338510 0.0 102635
09:00−11зсз338560 0.0 102735
12:00−5сз2284100 0.1 1027114
15:00−3ссз229399 0.2 1026156
18:00−3сз019693 0.3 102628
21:00−4зюз0195100 0.1 102619